TimeCDT,TemperatureF,Dew PointF,Humidity,Sea Level PressureIn,VisibilityMPH,Wind Direction,Wind SpeedMPH,Gust SpeedMPH,PrecipitationIn,Events,Conditions,WindDirDegrees,DateUTC
12:15 AM,66.2,60.8,83,29.92,10.0,South,4.6,-,N/A,,Overcast,180,2013-08-06 05:15:00
12:35 AM,66.2,60.8,83,29.91,10.0,South,8.1,-,N/A,,Overcast,190,2013-08-06 05:35:00
12:55 AM,65.5,62.1,89,29.91,10.0,SSW,8.1,-,N/A,,Overcast,200,2013-08-06 05:55:00
1:15 AM,65.5,62.1,89,29.90,10.0,South,6.9,-,N/A,,Overcast,180,2013-08-06 06:15:00
1:35 AM,65.3,62.1,89,29.90,10.0,South,6.9,-,N/A,,Overcast,180,2013-08-06 06:35:00
1:55 AM,65.8,62.6,89,29.90,10.0,South,6.9,-,N/A,,Overcast,190,2013-08-06 06:55:00
2:15 AM,66.2,62.6,88,29.91,10.0,South,4.6,-,N/A,,Overcast,180,2013-08-06 07:15:00
2:35 AM,66.2,62.6,88,29.90,10.0,South,5.8,-,N/A,,Overcast,180,2013-08-06 07:35:00
2:55 AM,66.0,62.4,88,29.90,10.0,SSW,4.6,-,N/A,,Overcast,200,2013-08-06 07:55:00
3:15 AM,65.3,62.2,90,29.88,10.0,SSW,3.5,-,N/A,,Mostly Cloudy,210,2013-08-06 08:15:00
3:35 AM,64.4,61.7,91,29.88,10.0,South,4.6,-,N/A,,Scattered Clouds,190,2013-08-06 08:35:00
3:55 AM,64.2,61.9,92,29.87,10.0,Calm,Calm,-,N/A,,Clear,0,2013-08-06 08:55:00
4:15 AM,64.4,62.1,92,29.87,10.0,South,3.5,-,N/A,,Clear,170,2013-08-06 09:15:00
4:35 AM,64.6,62.1,92,29.87,10.0,South,3.5,-,N/A,,Mostly Cloudy,180,2013-08-06 09:35:00
4:55 AM,64.6,62.4,93,29.88,10.0,Calm,Calm,-,N/A,,Overcast,0,2013-08-06 09:55:00
5:15 AM,64.8,62.6,93,29.88,10.0,Calm,Calm,-,N/A,,Overcast,0,2013-08-06 10:15:00
5:35 AM,65.3,63.0,92,29.88,10.0,South,4.6,-,N/A,,Overcast,180,2013-08-06 10:35:00
5:55 AM,64.8,62.4,92,29.88,10.0,South,4.6,-,N/A,,Scattered Clouds,180,2013-08-06 10:55:00
6:15 AM,65.1,62.8,92,29.90,10.0,SSW,3.5,-,N/A,,Mostly Cloudy,200,2013-08-06 11:15:00
6:35 AM,65.7,63.3,92,29.90,10.0,South,6.9,-,N/A,,Overcast,190,2013-08-06 11:35:00
6:55 AM,66.2,63.5,91,29.91,10.0,SSW,5.8,-,N/A,,Overcast,200,2013-08-06 11:55:00
7:15 AM,66.2,63.5,91,29.91,10.0,South,6.9,-,N/A,,Overcast,190,2013-08-06 12:15:00
7:35 AM,66.2,63.5,91,29.90,10.0,SSW,8.1,-,N/A,,Mostly Cloudy,200,2013-08-06 12:35:00
7:55 AM,67.8,64.2,88,29.92,10.0,SW,6.9,-,N/A,,Overcast,220,2013-08-06 12:55:00
8:15 AM,68.5,64.4,87,29.92,10.0,SW,9.2,-,N/A,,Overcast,220,2013-08-06 13:15:00
8:35 AM,68.9,64.6,86,29.91,10.0,SSW,10.4,-,N/A,,Overcast,210,2013-08-06 13:35:00
8:55 AM,68.5,64.4,87,29.92,10.0,West,11.5,-,N/A,,Overcast,260,2013-08-06 13:55:00
9:15 AM,68.9,64.6,86,29.91,10.0,SW,11.5,-,N/A,,Overcast,230,2013-08-06 14:15:00
9:35 AM,69.3,65.1,87,29.91,10.0,SW,10.4,-,N/A,,Overcast,220,2013-08-06 14:35:00
9:55 AM,70.2,65.3,85,29.90,10.0,SW,11.5,-,N/A,,Overcast,220,2013-08-06 14:55:00
10:15 AM,70.5,65.3,83,29.91,10.0,WSW,9.2,-,N/A,,Overcast,250,2013-08-06 15:15:00
10:35 AM,71.1,65.7,83,29.92,10.0,West,6.9,-,N/A,,Overcast,260,2013-08-06 15:35:00
10:55 AM,72.0,65.7,80,29.93,10.0,SW,5.8,-,N/A,,Overcast,230,2013-08-06 15:55:00
11:15 AM,72.9,66.2,80,29.93,10.0,WSW,9.2,-,N/A,,Overcast,240,2013-08-06 16:15:00
11:35 AM,74.3,66.6,77,29.92,10.0,WSW,5.8,-,N/A,,Overcast,240,2013-08-06 16:35:00
11:55 AM,75.0,66.2,74,29.92,10.0,SSW,9.2,-,N/A,,Overcast,210,2013-08-06 16:55:00
12:15 PM,76.1,66.4,72,29.91,10.0,SW,5.8,-,N/A,,Mostly Cloudy,220,2013-08-06 17:15:00
12:35 PM,77.4,66.9,70,29.91,10.0,WSW,8.1,-,N/A,,Mostly Cloudy,240,2013-08-06 17:35:00
12:55 PM,77.2,66.9,71,29.91,10.0,SSW,8.1,-,N/A,,Overcast,200,2013-08-06 17:55:00
1:15 PM,77.0,66.6,70,29.90,10.0,South,9.2,-,N/A,,Overcast,190,2013-08-06 18:15:00
1:35 PM,77.4,66.9,70,29.90,10.0,South,8.1,-,N/A,,Overcast,190,2013-08-06 18:35:00
1:55 PM,77.5,66.7,69,29.90,10.0,SW,9.2,-,N/A,,Overcast,220,2013-08-06 18:55:00
2:15 PM,78.1,67.1,69,29.89,10.0,SW,10.4,-,N/A,,Mostly Cloudy,220,2013-08-06 19:15:00
2:35 PM,79.5,67.1,66,29.88,10.0,SSW,6.9,-,N/A,,Scattered Clouds,210,2013-08-06 19:35:00
2:55 PM,79.2,66.9,66,29.88,10.0,South,9.2,-,N/A,,Clear,190,2013-08-06 19:55:00
3:15 PM,80.2,67.1,64,29.87,10.0,South,10.4,-,N/A,,Scattered Clouds,190,2013-08-06 20:15:00
3:35 PM,80.1,67.3,65,29.86,10.0,South,8.1,-,N/A,,Mostly Cloudy,190,2013-08-06 20:35:00
3:55 PM,81.5,66.9,61,29.86,10.0,South,10.4,-,N/A,,Scattered Clouds,170,2013-08-06 20:55:00
4:15 PM,81.1,66.9,62,29.86,10.0,SW,8.1,-,N/A,,Scattered Clouds,220,2013-08-06 21:15:00
4:35 PM,80.8,66.7,62,29.87,10.0,South,9.2,-,N/A,,Mostly Cloudy,180,2013-08-06 21:35:00
4:55 PM,81.1,66.9,62,29.87,10.0,South,11.5,-,N/A,,Mostly Cloudy,190,2013-08-06 21:55:00
5:15 PM,79.7,66.9,65,29.87,10.0,South,11.5,-,N/A,,Mostly Cloudy,190,2013-08-06 22:15:00
5:35 PM,79.9,66.9,64,29.87,10.0,South,10.4,-,N/A,,Scattered Clouds,180,2013-08-06 22:35:00
5:55 PM,79.0,66.7,66,29.87,10.0,South,10.4,-,N/A,,Clear,190,2013-08-06 22:55:00
6:15 PM,78.3,66.6,67,29.86,10.0,South,10.4,-,N/A,,Clear,180,2013-08-06 23:15:00
6:35 PM,77.9,66.7,68,29.87,10.0,South,10.4,-,N/A,,Clear,180,2013-08-06 23:35:00
6:55 PM,77.0,66.7,70,29.87,10.0,South,11.5,-,N/A,,Clear,190,2013-08-06 23:55:00
7:15 PM,76.3,67.1,73,29.87,10.0,South,9.2,-,N/A,,Clear,190,2013-08-07 00:15:00
7:35 PM,75.7,66.7,74,29.87,10.0,South,10.4,-,N/A,,Clear,180,2013-08-07 00:35:00
7:55 PM,75.4,66.6,74,29.87,10.0,South,8.1,-,N/A,,Clear,170,2013-08-07 00:55:00
8:15 PM,75.2,66.6,74,29.88,10.0,South,5.8,-,N/A,,Clear,170,2013-08-07 01:15:00
8:35 PM,74.7,66.6,76,29.88,10.0,South,5.8,-,N/A,,Clear,190,2013-08-07 01:35:00
8:55 PM,73.9,66.9,79,29.88,10.0,South,5.8,-,N/A,,Mostly Cloudy,180,2013-08-07 01:55:00
9:15 PM,73.6,66.7,79,29.88,10.0,South,5.8,-,N/A,,Scattered Clouds,170,2013-08-07 02:15:00
9:35 PM,72.9,66.7,81,29.88,10.0,South,8.1,-,N/A,,Scattered Clouds,170,2013-08-07 02:35:00
9:55 PM,72.7,66.9,82,29.88,10.0,South,6.9,-,N/A,,Scattered Clouds,180,2013-08-07 02:55:00
10:15 PM,71.6,66.9,85,29.89,10.0,South,6.9,-,N/A,,Clear,190,2013-08-07 03:15:00
10:35 PM,71.6,67.1,86,29.88,10.0,South,8.1,-,N/A,,Clear,190,2013-08-07 03:35:00
10:55 PM,71.2,67.1,87,29.88,10.0,South,5.8,-,N/A,,Clear,190,2013-08-07 03:55:00
11:15 PM,70.7,67.3,89,29.88,10.0,South,5.8,-,N/A,,Clear,190,2013-08-07 04:15:00
11:35 PM,71.1,67.5,88,29.87,10.0,South,5.8,-,N/A,,Clear,190,2013-08-07 04:35:00
11:55 PM,72.1,68.4,88,29.87,10.0,SSW,8.1,-,N/A,,Clear,200,2013-08-07 04:55:00